#timestamp,LO_Frequency,Hit,StdDev 
1660118415.2,286047000.1,N
1660118435.9,286047000.2,N
1660118455.7,286047001.1,N
1660118475.6,286047001.2,N
1660118495.4,286047000.6,N
1660118515.2,286047001.1,N
1660118535.1,286047000.9,N
1660118536.0,286047000.9,N
1660118555.8,286046998.1,N
1660118575.7,286046999.9,N
1660118595.5,286047001.1,N
1660118615.3,286046999.9,N
1660118635.2,286047000.9,N
1660118655.9,286047001.2,N
1660118675.7,286046998.2,N
1660118695.6,286046998.4,N
1660118715.4,286046999.2,N
1660118735.3,286046999.1,N
1660118755.1,286046996.6,N
1660118756.0,286046996.6,N
1660118805.9,286046997.0,E
1660118815.8,286046998.9,N
1660118835.6,286047001.1,P
1660118855.5,286046998.4,N
1660118875.3,286046998.3,N
1660118895.1,286046998.4,N
1660118915.9,286046998.2,N
1660118935.7,286047001.0,N
1660118955.5,286046999.5,N
1660118975.4,286046998.9,N
1660118995.2,286046996.7,Y
1660119015.1,286046997.8,P
1660119016.0,286046997.8,P
1660119035.8,286046997.3,P
1660119055.6,286046996.7,Y
1660119075.5,286046999.2,P
1660119095.3,286046996.5,P
1660119115.2,286046999.6,N
1660119135.9,286046999.6,N
1660119155.7,286046998.7,N
1660119175.6,286046999.6,N
1660119195.4,286046998.4,N
1660119215.2,286046998.4,N
1660119235.1,286046998.3,N
1660119236.0,286046998.3,N
1660119255.8,286046999.0,N
1660119275.7,286046999.2,N
1660119295.5,286046998.4,N
1660119315.3,286046999.3,N
1660119335.2,286046998.4,N
1660119355.0,286047000.7,N
1660119355.9,286047000.7,N
1660119375.8,286046998.5,N
1660119395.6,286046996.9,Y
1660119415.4,286046998.4,P
1660119435.3,286046998.8,P
1660119455.1,286046998.7,P
1660119475.9,286047000.7,Y
1660119495.7,286046999.7,P
1660119515.5,286047002.7,P
1660119535.4,286047000.4,N
1660119555.2,286047000.3,N
1660119575.0,286047000.0,N
1660119576.0,286047000.0,N
1660119595.8,286047000.2,N
1660119615.6,286047002.8,N
1660119635.5,286047002.7,N
1660119655.3,286046999.7,N
1660119675.1,286047002.4,N
1660119695.9,286047000.2,N
1660119715.7,286047001.9,N
1660119735.6,286047001.9,N
1660119755.4,286047002.2,N
1660119775.2,286047001.8,N
1660119795.1,286047004.4,Y
1660119796.0,286047004.4,P
1660119815.8,286047001.9,N
1660119835.6,286047001.6,N
1660119855.5,286046999.7,N
1660119875.3,286047002.4,N
1660119895.2,286046999.9,N
1660119915.9,286047002.7,N
1660119935.7,286047002.8,N
1660119955.6,286047002.8,N
1660119975.4,286047000.3,N
1660119995.2,286047002.8,N
1660120015.1,286047002.6,N
1660120016.0,286047002.6,N
1660120035.8,286047000.7,N
1660120055.7,286046999.8,N
1660120075.5,286047002.6,N
1660120095.3,286047004.0,Y
1660120115.2,286047002.5,P
1660120135.0,286047000.2,N
1660120135.9,286047000.2,N
1660120155.8,286046999.8,N
1660120175.6,286047000.4,N
1660120195.4,286047000.2,N
1660120215.3,286047001.2,N
1660120235.1,286046998.5,N
1660120255.8,286046998.1,N
1660120275.7,286046999.0,N
1660120295.5,286046999.6,N
1660120315.4,286046999.0,N
1660120335.2,286046999.1,N
1660120355.0,286046998.9,N
1660120355.9,286046998.9,N
1660120375.8,286047001.1,N
1660120395.6,286047001.2,N
1660120415.4,286046998.6,N
1660120435.3,286046998.4,N
1660120455.1,286046998.5,N
1660120475.9,286046998.9,N
1660120495.7,286046998.7,N
1660120515.5,286046998.9,N
1660120535.4,286047001.2,N
1660120555.2,286046999.3,N
1660120575.0,286046999.3,N
1660120575.9,286046999.3,N
1660120595.8,286046997.0,N
1660120615.6,286046999.5,N
1660120635.5,286046999.5,N
1660120655.3,286046999.5,N
1660120675.1,286046996.8,Y
1660120695.9,286046999.5,P
1660120715.7,286046996.5,P
1660120765.6,286046998.3,E
1660120775.5,286046998.6,N
1660120795.3,286047000.5,P
1660120815.2,286047000.5,N
1660120835.0,286047000.4,N
1660120835.9,286047000.4,N
1660120855.8,286047000.4,N
1660120875.6,286047000.1,N
1660120895.4,286047000.3,N
1660120915.3,286046999.8,N
1660120935.1,286047000.1,N
1660120955.8,286047000.6,N
1660120975.7,286046999.9,N
1660120995.5,286047002.2,Y
1660121015.4,286047000.1,P
1660121035.2,286047000.4,P
1660121055.0,286047002.6,P
1660121055.9,286047002.6,N
1660121075.8,286047000.3,N
1660121095.6,286047002.3,N
1660121115.5,286047001.6,N
1660121135.3,286047001.3,N
1660121155.1,286047001.5,N
1660121175.9,286047002.1,N
1660121195.7,286047002.1,N
1660121215.5,286047002.1,N
1660121235.4,286046999.8,N
1660121255.2,286047002.3,N
1660121275.1,286047002.4,N
1660121276.0,286047002.4,N
1660121295.8,286046999.7,N
1660121315.6,286047001.9,N
1660121335.5,286047002.8,N
1660121355.3,286046999.9,N
1660121375.1,286046999.7,N
1660121395.9,286047002.5,N
1660121415.7,286047004.3,Y
1660121435.6,286047000.2,P
1660121455.4,286047000.2,N
1660121475.2,286047000.9,N
1660121495.1,286047000.0,N
1660121496.0,286047000.0,N
1660121515.8,286046999.8,N
1660121535.7,286047000.7,N
1660121555.5,286046998.1,Y
1660121575.3,286047001.2,P
1660121595.2,286047000.8,N
1660121615.0,286046998.2,P
1660121615.9,286046998.2,N
1660121635.8,286046998.2,N
1660121655.6,286047000.5,N
1660121675.4,286046998.9,N
1660121695.3,286046999.5,N
1660121715.1,286046998.3,N
1660121735.8,286046998.3,N
1660121755.7,286047001.0,N
1660121775.5,286046999.5,N
1660121795.4,286046997.1,N
1660121815.2,286046996.8,N
1660121835.0,286046996.6,N
1660121835.9,286046996.6,N
1660121855.8,286046999.3,N
1660121875.6,286046999.2,N
1660121895.4,286046999.1,N
1660121915.3,286046999.2,N
1660121935.1,286046996.6,N
1660121955.9,286046999.1,N
1660121975.7,286046996.9,N
1660121995.5,286046997.3,N
